Regional Weather Roundup
Issued by NWS Boston, MA

Home | Current Version | Previous Version | Text Only | Print | Product List | Glossary On
Versions: 1 2 3 4 5 6 7 8 9 10 11 12 13 14 15 16 17 18 19 20 21 22 23 24 25 26 27 28
000
ASUS41 KBOX 200610
RWRBOX

REGIONAL WEATHER ROUNDUP
NATIONAL WEATHER SERVICE TAUNTON MA
200 AM EDT SUN APR 20 2014

NOTE:  "FAIR" INDICATES FEW OR NO CLOUDS BELOW 12,000 FEET WITH NO
SIGNIFICANT WEATHER AND/OR OBSTRUCTIONS TO VISIBILITY.  THE FOLLOWING
OBSERVATION LOCATIONS DO NOT REPORT PRESENT WEATHER...PROVINCETOWN...
SMITHFIELD...BLOCK ISLAND...KEENE...AND OXFORD.

MAZALL-200700-
EASTERN MASSACHUSETTS

CITY           SKY/WX    TMP DP  RH WIND       PRES   REMARKS
BOSTON         FAIR      44  24  45 N8        30.43S
6HR MIN TEMP:  44; 6HR MAX TEMP:  54;

BEVERLY        FAIR      37  24  59 N3        30.43R
LAWRENCE       FAIR      39  22  50 N6        30.44R
BEDFORD        FAIR      36  25  64 CALM      30.42S
BLUE HILL        N/A     40  23  50 N9        30.39S
NORWOOD        FAIR      38  24  57 CALM      30.42S
MARSHFIELD       N/A    N/A N/A N/A MISG        N/A
PLYMOUTH       FAIR      41  25  53 N10       30.41S
TAUNTON        FAIR      43  24  47 N5        30.41S
NEW BEDFORD    FAIR      44  25  47 N6        30.40S
$$

MAZALL-200700-
CAPE COD AND THE ISLANDS

CITY           SKY/WX    TMP DP  RH WIND       PRES   REMARKS
FALMOUTH       FAIR      43  27  52 N9G15     30.40S
HYANNIS        FAIR      43  34  70 N8        30.39S
CHATHAM        FAIR      44  31  60 NE8       30.41S
PROVINCETOWN   FAIR      41  36  81 MISG      30.43S
NANTUCKET      FAIR      44  31  60 N14       30.39S
MARTHAS VNYRD  FAIR      43  27  53 N6        30.40R
$$

MAZALL-200700-
CENTRAL AND WESTERN MASSACHUSETTS

CITY           SKY/WX    TMP DP  RH WIND       PRES   REMARKS
WORCESTER      FAIR      39  22  50 N8        30.40S
6HR MIN TEMP:  39; 6HR MAX TEMP:  51;

FITCHBURG      FAIR      33  26  75 NW3       30.43F
ORANGE         FAIR      31  25  78 CALM      30.42S
SPRINGFIELD    FAIR      36  27  69 N2        30.42S
WESTFIELD      FAIR      42  25  50 N3        30.43R
NORTH ADAMS    FAIR      30  26  85 CALM      30.42R
PITTSFIELD     FAIR      34  24  67 CALM      30.39R
$$

RIZALL-200700-
RHODE ISLAND

CITY           SKY/WX    TMP DP  RH WIND       PRES   REMARKS
PROVIDENCE     FAIR      44  23  43 N9        30.42R
6HR MIN TEMP:  44; 6HR MAX TEMP:  58;

NEWPORT        FAIR      44  25  47 N7        30.41R
BLOCK ISLAND   FAIR      45  32  61 NE7       30.40R
SMITHFIELD     FAIR      39  21  48 N8        30.42S
WESTERLY       FAIR      45  26  47 N6        30.41S
$$

CTZALL-200700-
CONNECTICUT

CITY           SKY/WX    TMP DP  RH WIND       PRES   REMARKS
BRADLEY INTL   FAIR      43  25  49 NE7       30.43R
6HR MIN TEMP:  42; 6HR MAX TEMP:  55;

HARTFORD       FAIR      44  25  47 N7        30.43R
BRIDGEPORT     FAIR      50  28  42 NE10      30.40R
DANBURY        FAIR      44  26  49 NE7       30.41R
GROTON         FAIR      46  27  47 N9        30.41R
NEW HAVEN      FAIR      47  28  47 NE7       30.41R
CHESTER        FAIR      46  28  49 NE6       30.41S
MERIDEN        FAIR      46  25  43 N5        30.42R
WILLIMANTIC    FAIR      43  25  49 N5        30.43R
OXFORD         FAIR      45  23  42 NE10G16   30.42S
$$

MEZ002-015-021-024-NHZ003-005-008-011-012-014-VTZ005-008-200700-
NORTHERN NEW ENGLAND

CITY           SKY/WX    TMP DP  RH WIND       PRES   REMARKS
PORTLAND ME    FAIR      34  22  61 NW3       30.43S
6HR MIN TEMP:  33; 6HR MAX TEMP:  46;

BANGOR ME      FAIR      34  19  54 W7        30.40R WCI  28
CONCORD NH     FAIR      30  23  75 CALM      30.44R
MANCHESTER NH  FAIR      40  23  50 N5        30.42R
NASHUA NH      FAIR      36  26  67 CALM      30.43F
PORTSMOUTH NH  PTCLDY    37  26  62 SW5       30.42R
JAFFREY NH     FAIR      30  24  78 S3        30.42R
KEENE NH       FAIR      32  21  64 E5        30.43F WCI  27
BURLINGTON VT  FAIR      29  25  85 CALM      30.47S
MT. WASHINGTON PTCLDY    12   7  79 W31         N/A  WCI -10
$$

NYZ052-076-200700-
EASTERN NEW YORK

CITY           SKY/WX    TMP DP  RH WIND       PRES   REMARKS
ALBANY         MOCLDY    41  22  46 N6        30.43S
6HR MIN TEMP:  41; 6HR MAX TEMP:  51;

NEW YORK CITY  FAIR      51  25  36 NE12      30.37R
6HR MIN TEMP:  51; 6HR MAX TEMP:  59;

$$

ANZALL-200700-
MARINE OBSERVATIONS

STATION/POSITION TIME  TEMP    WIND        PRES    VSBY  WAVE
                       AIR SEA DIR/SP/G                  HT/PER
                 (UTC) (F)     (DEG/KT/KT) (MB)    (MI)  (FT/S)
BOSTON BUOY      0550   42 40  330/  6/  8 1030.5R         3/10
BUZZARDS BAY     0500           10/ 15/ 16 1029.9R
NANTUCKET SOUND  0550   46 45   20/ 14/ 17 1029.0S         2/ 4
MASS BAY-STELLWA 0504   42 41  340/  6/  8 1028.6R  1 7/8  4/11
ISLE OF SHOALS   0500   43     340/ 12/ 13 1028.9R
S OF BLOCK IS    0525      41                N/A           3/ 9
$$

......................KEY.........................
  SKY/WX - SKY CONDITION/PRESENT WEATHER
  TMP    - TEMPERATURE IN FAHRENHEIT
  DWPT   - DEWPOINT IN FAHRENHEIT
  RH     - RELATIVE HUMIDITY IN PERCENT
  WIND   - DIRECTION AND SPEED IN MPH
  PRES   - MEAN SEA LEVEL PRESSURE IN INCHES OF HG
  WCI    - WIND CHILL INDEX
  VSB    - VISIBILITY IN MILES
  HX     - HEAT INDEX
  TC     - TEMPERATURE IN CELSIUS
  VRB    - VARIABLE WIND DIRECTION
  N/A    - NOT AVAILABLE



USA.gov is the U.S. government's official web portal to all federal, state and local government web resources and services.